WW5AH-9 Weather Reports


time (UTC)temp
C
wind
direction
speed
KPH
gust
KPH
rain 1hr
cm
rain 24hr
cm
rain mn
cm
humidity
%
barometer
mb
20260505084244 19 135 3.2 12.9 0.00 0.00 0.00 84 1005.3
20260505083740 18 153 6.4 14.5 0.00 0.00 0.00 84 1005.4
20260505083237 18 69 3.2 9.7 0.00 0.00 0.00 83 1005.4
20260505082733 18 181 6.4 12.9 0.00 0.00 0.00 83 1005.3
20260505082230 18 165 9.7 12.9 0.00 0.00 0.00 83 1005.2
20260505081726 18 138 8.0 12.9 0.00 0.00 0.00 83 1005.4
20260505081224 18 170 4.8 12.9 0.00 0.00 0.00 83 1005.4
20260505080720 18 133 3.2 6.4 0.00 0.00 0.00 83 1005.5
20260505080216 18 134 4.8 11.3 0.00 0.00 0.00 82 1005.7
20260505075712 18 167 3.2 11.3 0.00 0.00 0.00 82 1005.7
20260505075209 18 166 8.0 11.3 0.00 0.00 0.00 82 1005.7
20260505074706 18 195 1.6 6.4 0.00 0.00 0.00 82 1005.7
20260505074203 18 168 4.8 11.3 0.00 0.00 0.00 81 1005.6
20260505073701 18 167 3.2 4.8 0.00 0.00 0.00 81 1005.9
20260505073159 18 140 3.2 9.7 0.00 0.00 0.00 81 1006.0
20260505072654 18 132 1.6 9.7 0.00 0.00 0.00 80 1006.0
20260505072151 18 72 3.2 9.7 0.00 0.00 0.00 80 1006.0
20260505071646 18 143 4.8 9.7 0.00 0.00 0.00 80 1006.2
20260505071144 18 165 3.2 11.3 0.00 0.00 0.00 80 1006.0
20260505070641 18 148 6.4 9.7 0.00 0.00 0.00 79 1006.3
20260505070138 18 155 6.4 9.7 0.00 0.00 0.00 79 1006.2
20260505065633 18 167 4.8 6.4 0.00 0.00 0.00 79 1006.3
20260505065130 19 154 4.8 9.7 0.00 0.00 0.00 78 1006.1
20260505064627 19 163 8.0 11.3 0.00 0.00 0.00 78 1006.4
20260505064126 19 139 3.2 6.4 0.00 0.00 0.00 78 1006.4
20260505063623 19 124 6.4 12.9 0.00 0.00 0.00 77 1006.3
20260505063118 19 143 6.4 9.7 0.00 0.00 0.00 77 1006.2
20260505062615 19 166 11.3 12.9 0.00 0.00 0.00 77 1006.5
20260505062113 19 170 4.8 11.3 0.00 0.00 0.00 76 1006.5
20260505061609 19 162 6.4 11.3 0.00 0.00 0.00 76 1006.5
20260505061108 19 167 4.8 9.7 0.00 0.00 0.00 76 1006.6
20260505060605 19 145 4.8 6.4 0.00 0.00 0.00 76 1006.8
20260505055557 19 179 3.2 9.7 0.00 0.00 0.00 75 1007.0
20260505055054 20 154 1.6 4.8 0.00 0.00 0.00 74 1007.0
20260505054551 20 52 3.2 9.7 0.00 0.00 0.00 74 1007.1
20260505054049 20 138 0.0 11.3 0.00 0.00 0.00 74 1007.0
20260505053546 20 155 3.2 9.7 0.00 0.00 0.00 73 1007.2
20260505053042 20 157 11.3 12.9 0.00 0.00 0.00 73 1006.9
20260505052539 20 174 0.0 1.6 0.00 0.00 0.00 73 1006.9
20260505052037 20 167 6.4 6.4 0.00 0.00 0.00 72 1007.0
20260505051534 20 151 1.6 9.7 0.00 0.00 0.00 72 1007.0
20260505051032 20 168 3.2 6.4 0.00 0.00 0.00 71 1007.2
20260505050530 20 172 6.4 9.7 0.00 0.00 0.00 71 1007.2
20260505041457 20 110 4.8 9.7 0.00 0.00 0.00 67 1007.5
20260505040955 20 158 4.8 6.4 0.00 0.00 0.00 67 1007.4
20260505040452 20 154 3.2 6.4 0.00 0.00 0.00 66 1007.6
20260505035949 20 161 0.0 4.8 0.00 0.00 0.00 66 1007.6
20260505035445 20 172 1.6 6.4 0.00 0.00 0.00 66 1007.6
20260505034942 20 186 1.6 3.2 0.00 0.00 0.00 65 1007.6
20260505034438 20 135 4.8 4.8 0.00 0.00 0.00 65 1007.6
20260505033936 20 164 3.2 4.8 0.00 0.00 0.00 65 1007.5
20260505033432 20 184 3.2 6.4 0.00 0.00 0.00 64 1007.6
20260505032931 20 140 1.6 3.2 0.00 0.00 0.00 64 1007.6
20260505032427 20 165 0.0 3.2 0.00 0.00 0.00 64 1007.6
20260505031924 20 165 4.8 4.8 0.00 0.00 0.00 64 1007.5
20260505031421 20 141 3.2 9.7 0.00 0.00 0.00 64 1007.4
20260505030918 20 159 3.2 4.8 0.00 0.00 0.00 64 1007.5
20260505030413 20 174 4.8 6.4 0.00 0.00 0.00 64 1007.5
20260505025909 20 130 8.0 9.7 0.00 0.00 0.00 64 1007.3
20260505025407 20 164 0.0 4.8 0.00 0.00 0.00 64 1007.3
20260505024906 20 134 3.2 4.8 0.00 0.00 0.00 64 1007.5
20260505024403 20 131 3.2 4.8 0.00 0.00 0.00 64 1007.4
20260505023859 20 135 3.2 3.2 0.00 0.00 0.00 64 1007.5
20260505023357 20 147 0.0 0.0 0.00 0.00 0.00 64 1007.5
20260505022854 20 138 0.0 1.6 0.00 0.00 0.00 64 1007.4
20260505022351 20 167 0.0 3.2 0.00 0.00 0.00 64 1007.1
20260505021848 21 153 0.0 4.8 0.00 0.00 0.00 63 1007.4
20260505021344 21 152 0.0 0.0 0.00 0.00 0.00 63 1007.3
20260505020840 21 176 0.0 4.8 0.00 0.00 0.00 63 1007.4
20260505020336 21 176 0.0 1.6 0.00 0.00 0.00 63 1007.1
20260505015833 21 181 0.0 3.2 0.00 0.00 0.00 63 1007.2
20260505015330 21 171 0.0 0.0 0.00 0.00 0.00 62 1007.1
20260505014827 21 158 1.6 3.2 0.00 0.00 0.00 62 1007.3
20260505014324 21 154 0.0 1.6 0.00 0.00 0.00 62 1006.8
20260505013821 21 157 1.6 3.2 0.00 0.00 0.00 61 1007.0
20260505013318 21 164 0.0 1.6 0.00 0.00 0.00 61 1007.0
20260505012817 22 167 0.0 0.0 0.00 0.00 0.00 60 1006.9
20260505012314 22 155 0.0 3.2 0.00 0.00 0.00 60 1006.9
20260505011809 22 164 0.0 3.2 0.00 0.00 0.00 60 1006.8
20260505011307 22 140 1.6 3.2 0.00 0.00 0.00 60 1006.9
20260505010802 22 153 1.6 3.2 0.00 0.00 0.00 59 1006.8
20260505010259 22 184 1.6 3.2 0.00 0.00 0.00 59 1006.9
20260505005755 22 146 3.2 3.2 0.00 0.00 0.00 58 1006.9
20260505005252 22 125 1.6 4.8 0.00 0.00 0.00 58 1006.8
20260505004749 22 165 3.2 4.8 0.00 0.00 0.00 58 1006.8
20260505004245 23 145 3.2 3.2 0.00 0.00 0.00 57 1006.7
20260505003743 23 91 1.6 6.4 0.00 0.00 0.00 57 1007.0
20260505003241 23 168 1.6 6.4 0.00 0.00 0.00 57 1006.9
20260505002736 23 201 3.2 4.8 0.00 0.00 0.00 56 1006.8
20260505002234 23 193 4.8 11.3 0.00 0.00 0.00 56 1006.9
20260505001731 23 198 1.6 6.4 0.00 0.00 0.00 55 1007.0
20260505001229 24 161 6.4 14.5 0.00 0.00 0.00 55 1007.0
20260505000725 24 200 0.0 11.3 0.00 0.00 0.00 54 1007.2
20260505000226 24 195 9.7 11.3 0.00 0.00 0.00 54 1007.2
20260504235720 24 179 1.6 6.4 0.00 0.00 0.00 53 1007.0
20260504235216 25 9 6.4 11.3 0.00 0.00 0.00 52 1007.0
20260504234714 25 137 9.7 16.1 0.00 0.00 0.00 52 1007.0
20260504234211 25 157 6.4 11.3 0.00 0.00 0.00 52 1007.3
20260504233707 25 155 9.7 24.1 0.00 0.00 0.00 51 1007.5
20260504233203 25 120 11.3 17.7 0.00 0.00 0.00 51 1007.4
20260504232700 25 250 1.6 9.7 0.00 0.00 0.00 51 1007.3
20260504232157 25 228 22.5 25.7 0.00 0.00 0.00 50 1007.3
20260504231654 25 174 9.7 17.7 0.00 0.00 0.00 51 1007.2
20260504231150 25 215 0.0 17.7 0.00 0.00 0.00 51 1007.4
20260504230646 25 196 11.3 16.1 0.00 0.00 0.00 50 1007.4
20260504230145 25 196 9.7 24.1 0.00 0.00 0.00 49 1007.6
20260504225643 26 200 11.3 30.6 0.00 0.00 0.00 49 1007.6
20260504225139 26 164 11.3 17.7 0.00 0.00 0.00 49 1007.6
20260504224636 26 202 3.2 17.7 0.00 0.00 0.00 49 1007.6
20260504224132 26 153 8.0 12.9 0.00 0.00 0.00 49 1007.8
20260504223630 26 124 12.9 25.7 0.00 0.00 0.00 49 1007.8
20260504223126 26 207 6.4 12.9 0.00 0.00 0.00 50 1007.7
20260504222623 26 165 12.9 22.5 0.00 0.00 0.00 49 1008.0
20260504222120 26 126 6.4 14.5 0.00 0.00 0.00 49 1008.0
20260504221617 26 125 12.9 22.5 0.00 0.00 0.00 49 1008.1
20260504221114 26 164 9.7 16.1 0.00 0.00 0.00 49 1008.1
20260504220610 26 218 4.8 17.7 0.00 0.00 0.00 49 1008.2
20260504220108 26 177 17.7 20.9 0.00 0.00 0.00 49 1008.2
20260504215604 26 198 8.0 16.1 0.00 0.00 0.00 49 1008.3
20260504215102 26 99 9.7 20.9 0.00 0.00 0.00 49 1008.4
20260504214557 26 168 6.4 24.1 0.00 0.00 0.00 49 1008.3
20260504214054 26 166 14.5 20.9 0.00 0.00 0.00 49 1008.3
20260504213550 26 185 11.3 20.9 0.00 0.00 0.00 48 1008.5
20260504213047 26 117 6.4 17.7 0.00 0.00 0.00 49 1008.8
20260504212543 26 193 12.9 20.9 0.00 0.00 0.00 49 1008.8
20260504212041 26 220 0.0 17.7 0.00 0.00 0.00 50 1009.0
20260504211537 26 187 17.7 22.5 0.00 0.00 0.00 49 1009.0
20260504211034 26 144 9.7 25.7 0.00 0.00 0.00 49 1009.2
20260504210531 26 210 6.4 11.3 0.00 0.00 0.00 49 1009.1
20260504210028 26 157 19.3 22.5 0.00 0.00 0.00 48 1009.0
20260504205526 26 192 17.7 25.7 0.00 0.00 0.00 49 1009.4
20260504205024 26 119 8.0 17.7 0.00 0.00 0.00 48 1009.6
20260504204521 26 169 8.0 17.7 0.00 0.00 0.00 49 1009.8
20260504204020 26 168 9.7 14.5 0.00 0.00 0.00 48 1009.6
20260504203518 26 219 11.3 22.5 0.00 0.00 0.00 48 1009.7
20260504203015 26 204 9.7 27.4 0.00 0.00 0.00 48 1009.7
20260504202510 26 175 16.1 24.1 0.00 0.00 0.00 48 1010.2
20260504202008 26 164 9.7 14.5 0.00 0.00 0.00 49 1009.9
20260504201505 26 228 14.5 22.5 0.00 0.00 0.00 47 1010.0
20260504201002 26 188 8.0 20.9 0.00 0.00 0.00 48 1010.4
20260504200459 26 158 11.3 29.0 0.00 0.00 0.00 46 1010.3
20260504195955 26 159 12.9 17.7 0.00 0.00 0.00 48 1010.4
20260504195451 26 189 4.8 16.1 0.00 0.00 0.00 48 1010.7
20260504194948 26 166 9.7 20.9 0.00 0.00 0.00 49 1010.6
20260504194444 26 184 14.5 20.9 0.00 0.00 0.00 47 1010.8
20260504193940 26 179 9.7 16.1 0.00 0.00 0.00 48 1010.8
20260504193438 26 173 3.2 14.5 0.00 0.00 0.00 48 1010.9
20260504192936 26 123 11.3 17.7 0.00 0.00 0.00 48 1010.9
20260504192433 26 153 14.5 22.5 0.00 0.00 0.00 47 1011.2
20260504191932 26 209 1.6 17.7 0.00 0.00 0.00 48 1011.1
20260504191430 25 174 6.4 22.5 0.00 0.00 0.00 47 1011.2
20260504190930 25 208 8.0 29.0 0.00 0.00 0.00 47 1011.3
20260504190425 25 173 9.7 20.9 0.00 0.00 0.00 47 1011.6
20260504185923 26 184 9.7 20.9 0.00 0.00 0.00 47 1011.3
20260504185420 26 174 11.3 17.7 0.00 0.00 0.00 48 1011.3
20260504184915 25 193 8.0 25.7 0.00 0.00 0.00 48 1011.5
20260504184411 25 154 11.3 16.1 0.00 0.00 0.00 47 1011.4
20260504183908 25 170 12.9 14.5 0.00 0.00 0.00 48 1011.5
20260504183405 25 205 12.9 17.7 0.00 0.00 0.00 48 1011.8
20260504182903 25 190 17.7 24.1 0.00 0.00 0.00 47 1011.9
20260504182400 25 183 16.1 17.7 0.00 0.00 0.00 47 1011.9
20260504181856 25 163 12.9 25.7 0.00 0.00 0.00 48 1012.0
20260504181354 25 194 11.3 24.1 0.00 0.00 0.00 48 1012.1
20260504180853 25 148 11.3 20.9 0.00 0.00 0.00 49 1012.2
20260504180350 25 216 6.4 17.7 0.00 0.00 0.00 49 1012.2
20260504175848 25 140 3.2 22.5 0.00 0.00 0.00 49 1012.4
20260504175345 25 163 3.2 16.1 0.00 0.00 0.00 49 1012.5
20260504174843 25 184 8.0 24.1 0.00 0.00 0.00 49 1012.6
20260504174340 24 201 11.3 24.1 0.00 0.00 0.00 49 1012.8
20260504173837 25 163 11.3 22.5 0.00 0.00 0.00 49 1012.7
20260504173334 25 188 6.4 25.7 0.00 0.00 0.00 49 1012.8
20260504172831 25 163 6.4 16.1 0.00 0.00 0.00 50 1012.5
20260504172328 24 227 1.6 17.7 0.00 0.00 0.00 52 1013.0
20260504171823 24 181 17.7 22.5 0.00 0.00 0.00 50 1013.0
20260504171321 23 182 8.0 14.5 0.00 0.00 0.00 50 1012.9
20260504170818 23 152 9.7 25.7 0.00 0.00 0.00 49 1012.8
20260504170315 23 180 12.9 25.7 0.00 0.00 0.00 50 1013.0
20260504160233 23 193 8.0 25.7 0.00 0.00 0.00 54 1013.5
20260504150658 21 223 14.5 20.9 0.00 0.00 0.00 57 1013.6
20260504150155 21 236 14.5 25.7 0.00 0.00 0.00 57 1013.7
20260504141124 20 52 1.6 9.7 0.00 0.00 0.00 64 1013.9
20260504140621 20 207 11.3 17.7 0.00 0.00 0.00 64 1014.0
20260504140117 20 208 3.2 11.3 0.00 0.00 0.00 66 1013.9
20260504130545 16 190 1.6 9.7 0.00 0.00 0.00 74 1013.7
20260504110432 13 221 1.6 4.8 0.00 0.00 0.00 78 1013.2
20260504100355 14 204 3.2 6.4 0.00 0.00 0.00 76 1013.6